EW8876 Weather Reports


time (UTC)temp
C
wind
direction
speed
KPH
gust
KPH
rain 1hr
cm
rain 24hr
cm
rain mn
cm
humidity
%
barometer
mb
20260506124801 23 143 0.0 0.0 0.00 0.00 0.00 97 1010.2
20260506124258 23 132 1.6 3.2 0.00 0.00 0.00 98 1009.9
20260506123755 23 142 0.0 0.0 0.00 0.00 0.00 98 1010.1
20260506123254 23 136 0.0 0.0 0.00 0.00 0.00 98 1009.9
20260506122750 23 139 0.0 3.2 0.00 0.00 0.00 98 1009.7
20260506122247 23 163 0.0 0.0 0.00 0.00 0.00 98 1009.9
20260506121746 23 137 0.0 0.0 0.00 0.00 0.00 98 1009.9
20260506121242 23 143 0.0 0.0 0.00 0.00 0.00 98 1010.1
20260506120739 23 150 0.0 3.2 0.00 0.00 0.00 98 1010.0
20260506120237 23 157 0.0 0.0 0.00 0.00 0.00 98 1010.1
20260506115734 23 138 0.0 0.0 0.00 0.00 0.00 98 1010.0
20260506115233 23 138 0.0 0.0 0.00 0.00 0.00 98 1010.0
20260506114730 23 140 0.0 0.0 0.00 0.00 0.00 98 1009.5
20260506114227 23 145 0.0 0.0 0.00 0.00 0.00 98 1010.0
20260506113726 23 144 0.0 0.0 0.00 0.00 0.00 97 1009.9
20260506113223 23 153 0.0 0.0 0.00 0.00 0.00 97 1009.8
20260506112719 23 143 0.0 0.0 0.00 0.00 0.00 97 1010.0
20260506112217 23 142 0.0 0.0 0.00 0.00 0.00 97 1010.0
20260506111714 23 146 0.0 0.0 0.00 0.00 0.00 97 1010.0
20260506111213 23 137 0.0 0.0 0.00 0.00 0.00 97 1010.0
20260506110709 23 149 0.0 0.0 0.00 0.00 0.00 97 1009.8
20260506110207 23 143 0.0 0.0 0.00 0.00 0.00 97 1010.0
20260506105703 23 143 0.0 0.0 0.00 0.00 0.00 97 1009.9
20260506105200 23 150 0.0 0.0 0.00 0.00 0.00 97 1009.9
20260506104658 23 153 0.0 0.0 0.00 0.00 0.00 96 1010.0
20260506104155 23 141 0.0 0.0 0.00 0.00 0.00 96 1009.9
20260506103652 23 152 0.0 0.0 0.00 0.00 0.00 96 1009.9
20260506103149 23 134 0.0 0.0 0.00 0.00 0.00 96 1009.8
20260506102647 23 154 0.0 0.0 0.00 0.00 0.00 96 1009.6
20260506102144 23 165 0.0 3.2 0.00 0.00 0.00 96 1009.9
20260506101641 23 140 3.2 4.8 0.00 0.00 0.00 96 1009.8
20260506101138 23 164 1.6 3.2 0.00 0.00 0.00 96 1009.7
20260506100637 23 175 1.6 4.8 0.00 0.00 0.00 96 1009.5
20260506100134 23 150 0.0 0.0 0.00 0.00 0.00 96 1009.5
20260506095633 23 131 0.0 0.0 0.00 0.00 0.00 96 1009.5
20260506095129 23 169 0.0 0.0 0.00 0.00 0.00 96 1009.4
20260506094626 23 129 0.0 0.0 0.00 0.00 0.00 96 1009.2
20260506094124 23 189 0.0 0.0 0.00 0.00 0.00 95 1009.3
20260506093622 23 197 4.8 8.0 0.00 0.00 0.00 95 1009.0
20260506093119 23 112 8.0 11.3 0.00 0.00 0.00 95 1009.0
20260506092617 23 142 0.0 0.0 0.00 0.00 0.00 95 1008.8
20260506092114 23 133 0.0 0.0 0.00 0.00 0.00 95 1008.9
20260506091612 23 145 0.0 0.0 0.00 0.00 0.00 95 1009.0
20260506091109 23 202 0.0 3.2 0.00 0.00 0.00 95 1008.8
20260506090607 23 148 4.8 8.0 0.00 0.00 0.00 95 1008.9
20260506085600 23 165 1.6 4.8 0.00 0.00 0.00 94 1008.4
20260506085056 23 171 0.0 0.0 0.00 0.00 0.00 94 1008.6
20260506084553 23 147 1.6 3.2 0.00 0.00 0.00 94 1008.7
20260506084050 23 113 1.6 3.2 0.00 0.00 0.00 94 1008.7
20260506083547 23 159 0.0 0.0 0.00 0.00 0.00 94 1008.8
20260506083044 23 177 8.0 11.3 0.00 0.00 0.00 94 1008.7
20260506082540 23 155 3.2 4.8 0.00 0.00 0.00 94 1008.4
20260506082036 23 144 0.0 0.0 0.00 0.00 0.00 94 1008.6
20260506081535 23 178 4.8 4.8 0.00 0.00 0.00 94 1008.7
20260506081032 23 140 4.8 8.0 0.00 0.00 0.00 94 1008.6
20260506080530 23 233 3.2 4.8 0.00 0.00 0.00 94 1008.6
20260506073513 23 174 3.2 4.8 0.00 0.00 0.00 94 1009.0
20260506073010 23 183 4.8 14.5 0.00 0.00 0.00 94 1009.0
20260506072507 23 177 4.8 8.0 0.00 0.00 0.00 94 1009.0
20260506072005 23 99 4.8 4.8 0.00 0.00 0.00 94 1009.2
20260506071503 23 34 4.8 4.8 0.00 0.00 0.00 95 1009.3
20260506070959 23 172 6.4 8.0 0.00 0.00 0.00 95 1009.3
20260506070456 23 200 8.0 11.3 0.00 0.00 0.00 94 1009.1
20260506062434 23 179 6.4 11.3 0.00 0.00 0.00 94 1009.0
20260506061930 23 175 6.4 8.0 0.00 0.00 0.00 94 1008.9
20260506061426 23 183 4.8 8.0 0.00 0.00 0.00 94 1009.0
20260506060925 23 144 8.0 11.3 0.00 0.00 0.00 94 1009.2
20260506060422 23 219 3.2 4.8 0.00 0.00 0.00 94 1009.2
20260506051354 24 198 4.8 8.0 0.00 0.00 0.00 94 1009.1
20260506050851 24 214 3.2 8.0 0.00 0.00 0.00 94 1009.1
20260506050349 24 170 3.2 4.8 0.00 0.00 0.00 93 1009.3
20260506044839 24 177 0.0 3.2 0.00 0.00 0.00 94 1009.4
20260506044337 24 182 8.0 11.3 0.00 0.00 0.00 94 1009.1
20260506043834 24 202 4.8 8.0 0.00 0.00 0.00 94 1009.0
20260506043331 24 170 4.8 8.0 0.00 0.00 0.00 93 1009.1
20260506042829 24 120 4.8 8.0 0.00 0.00 0.00 93 1009.0
20260506042328 24 169 1.6 3.2 0.00 0.00 0.00 92 1009.2
20260506041827 25 128 6.4 8.0 0.00 0.00 0.00 92 1009.1
20260506041323 24 159 8.0 11.3 0.00 0.00 0.00 92 1008.8
20260506040820 24 149 0.0 3.2 0.00 0.00 0.00 92 1008.9
20260506040318 24 193 3.2 4.8 0.00 0.00 0.00 92 1008.5
20260506035814 24 138 6.4 8.0 0.00 0.00 0.00 92 1008.9
20260506035311 25 139 0.0 0.0 0.00 0.00 0.00 91 1008.6
20260506034809 25 206 6.4 8.0 0.00 0.00 0.00 91 1008.4
20260506034306 25 143 4.8 4.8 0.00 0.00 0.00 90 1008.5
20260506033802 25 213 4.8 4.8 0.00 0.00 0.00 91 1008.6
20260506033259 25 152 6.4 11.3 0.00 0.00 0.00 91 1008.4
20260506032756 25 165 1.6 3.2 0.00 0.00 0.00 91 1008.5
20260506032253 25 146 0.0 0.0 0.00 0.00 0.00 90 1008.5
20260506031750 25 184 3.2 4.8 0.00 0.00 0.00 90 1008.1
20260506031247 25 184 1.6 3.2 0.00 0.00 0.00 89 1008.2
20260506030745 25 176 1.6 3.2 0.00 0.00 0.00 88 1008.5
20260506030243 25 173 4.8 8.0 0.00 0.00 0.00 87 1008.3
20260506025739 25 177 1.6 4.8 0.00 0.00 0.00 87 1008.4
20260506025236 25 40 4.8 4.8 0.00 0.00 0.00 87 1008.0
20260506024732 25 190 1.6 3.2 0.00 0.00 0.00 86 1008.1
20260506024229 25 138 0.0 3.2 0.00 0.00 0.00 86 1008.0
20260506023720 26 174 3.2 3.2 0.00 0.00 0.00 85 1007.8
20260506023217 26 186 1.6 3.2 0.00 0.00 0.00 85 1007.7
20260506022714 26 147 0.0 3.2 0.00 0.00 0.00 85 1007.6
20260506022212 25 184 1.6 3.2 0.00 0.00 0.00 86 1007.4
20260506021709 26 164 0.0 0.0 0.00 0.00 0.00 85 1007.5
20260506021206 26 166 0.0 0.0 0.00 0.00 0.00 85 1007.4
20260506020703 26 113 3.2 4.8 0.00 0.00 0.00 84 1007.4
20260506020201 26 161 0.0 0.0 0.00 0.00 0.00 84 1007.1
20260506015658 26 141 0.0 0.0 0.00 0.00 0.00 84 1007.2
20260506015155 26 162 0.0 0.0 0.00 0.00 0.00 84 1007.1
20260506014653 26 137 0.0 3.2 0.00 0.00 0.00 83 1006.9
20260506014148 26 221 1.6 4.8 0.00 0.00 0.00 83 1007.0
20260506013646 26 203 0.0 3.2 0.00 0.00 0.00 83 1006.8
20260506013143 26 162 0.0 3.2 0.00 0.00 0.00 82 1006.9
20260506012639 26 191 4.8 4.8 0.00 0.00 0.00 83 1007.0
20260506012136 26 148 0.0 0.0 0.00 0.00 0.00 82 1006.9
20260506011634 26 207 0.0 0.0 0.00 0.00 0.00 82 1007.0
20260506011130 27 140 0.0 0.0 0.00 0.00 0.00 81 1006.8
20260506010629 27 164 1.6 3.2 0.00 0.00 0.00 81 1006.8
20260506010125 27 136 0.0 0.0 0.00 0.00 0.00 80 1006.8
20260506005622 27 187 0.0 0.0 0.00 0.00 0.00 80 1006.9
20260506005118 27 174 0.0 3.2 0.00 0.00 0.00 79 1007.0
20260506004615 27 135 3.2 4.8 0.00 0.00 0.00 79 1006.8
20260506004112 27 109 1.6 4.8 0.00 0.00 0.00 78 1006.8
20260506003609 27 188 0.0 3.2 0.00 0.00 0.00 78 1006.9
20260506003105 27 230 4.8 8.0 0.00 0.00 0.00 78 1006.9
20260506002601 27 111 3.2 4.8 0.00 0.00 0.00 77 1007.0
20260506002057 27 140 0.0 3.2 0.00 0.00 0.00 77 1007.1
20260506001553 27 166 3.2 4.8 0.00 0.00 0.00 77 1007.1
20260506001050 27 139 0.0 0.0 0.00 0.00 0.00 77 1007.0
20260506000548 27 146 0.0 3.2 0.00 0.00 0.00 77 1007.0
20260506000045 27 191 0.0 3.2 0.00 0.00 0.00 76 1006.9
20260505235543 27 290 3.2 4.8 0.00 0.00 0.00 76 1006.8
20260505235040 27 119 8.0 8.0 0.00 0.00 0.00 76 1006.8
20260505234537 28 190 8.0 11.3 0.00 0.00 0.00 76 1006.5
20260505234033 28 224 8.0 11.3 0.00 0.00 0.00 75 1006.6
20260505233531 28 180 4.8 8.0 0.00 0.00 0.00 75 1006.8
20260505233028 28 157 1.6 3.2 0.00 0.00 0.00 74 1006.8
20260505232526 28 148 4.8 4.8 0.00 0.00 0.00 74 1006.4
20260505232023 28 200 8.0 11.3 0.00 0.00 0.00 74 1006.4
20260505231520 28 34 4.8 8.0 0.00 0.00 0.00 74 1006.2
20260505231019 28 173 3.2 4.8 0.00 0.00 0.00 74 1006.4
20260505230516 28 161 3.2 4.8 0.00 0.00 0.00 74 1006.4
20260505230012 28 141 8.0 14.5 0.00 0.00 0.00 73 1006.3
20260505225509 28 17 4.8 11.3 0.00 0.00 0.00 73 1006.2
20260505225005 28 229 9.7 11.3 0.00 0.00 0.00 73 1006.0
20260505224502 28 240 4.8 8.0 0.00 0.00 0.00 72 1006.2
20260505223959 28 185 3.2 3.2 0.00 0.00 0.00 72 1006.4
20260505223456 29 157 6.4 8.0 0.00 0.00 0.00 71 1006.3
20260505222953 28 300 4.8 4.8 0.00 0.00 0.00 72 1006.3
20260505222449 29 229 8.0 11.3 0.00 0.00 0.00 72 1006.3
20260505221944 29 230 4.8 8.0 0.00 0.00 0.00 71 1006.2
20260505221442 29 188 3.2 4.8 0.00 0.00 0.00 71 1006.2
20260505220939 29 231 4.8 8.0 0.00 0.00 0.00 71 1006.3
20260505220436 29 150 8.0 16.1 0.00 0.00 0.00 71 1006.3
20260505215934 29 160 3.2 4.8 0.00 0.00 0.00 70 1006.3
20260505215432 30 192 4.8 4.8 0.00 0.00 0.00 70 1006.6
20260505214929 30 169 1.6 3.2 0.00 0.00 0.00 71 1006.4
20260505214427 29 164 4.8 4.8 0.00 0.00 0.00 72 1006.4
20260505213924 30 125 4.8 11.3 0.00 0.00 0.00 71 1006.8
20260505213422 30 285 3.2 8.0 0.00 0.00 0.00 71 1007.0
20260505212917 30 179 3.2 4.8 0.00 0.00 0.00 70 1007.0
20260505212415 30 167 6.4 8.0 0.00 0.00 0.00 70 1006.8
20260505211911 30 205 3.2 8.0 0.00 0.00 0.00 71 1006.9
20260505211409 30 192 1.6 4.8 0.00 0.00 0.00 71 1007.1
20260505210905 30 175 4.8 14.5 0.00 0.00 0.00 72 1007.1
20260505210402 30 216 6.4 8.0 0.00 0.00 0.00 71 1007.1
20260505205859 29 153 3.2 4.8 0.00 0.00 0.00 71 1007.0
20260505205357 29 113 8.0 8.0 0.00 0.00 0.00 72 1007.2
20260505204854 30 176 1.6 4.8 0.00 0.00 0.00 72 1007.2
20260505204351 30 199 0.0 0.0 0.00 0.00 0.00 73 1007.0
20260505203848 29 163 1.6 3.2 0.00 0.00 0.00 72 1007.2
20260505203345 30 223 9.7 11.3 0.00 0.00 0.00 71 1007.2
20260505202841 30 177 3.2 4.8 0.00 0.00 0.00 72 1007.5
20260505202337 29 179 3.2 3.2 0.00 0.00 0.00 74 1007.6
20260505201834 29 293 3.2 4.8 0.00 0.00 0.00 72 1007.5
20260505201332 29 186 6.4 11.3 0.00 0.00 0.00 74 1007.8
20260505200830 30 168 8.0 14.5 0.00 0.00 0.00 73 1007.9
20260505200326 29 208 4.8 8.0 0.00 0.00 0.00 73 1008.1
20260505195822 30 130 1.6 3.2 0.00 0.00 0.00 71 1007.8
20260505195319 30 187 1.6 3.2 0.00 0.00 0.00 71 1007.8
20260505194817 30 125 6.4 11.3 0.00 0.00 0.00 72 1008.1
20260505194314 29 170 0.0 3.2 0.00 0.00 0.00 73 1008.1
20260505193809 30 165 3.2 4.8 0.00 0.00 0.00 71 1008.3
20260505193307 29 111 3.2 4.8 0.00 0.00 0.00 71 1008.3
20260505192805 29 150 3.2 4.8 0.00 0.00 0.00 73 1008.4
20260505192305 29 270 1.6 3.2 0.00 0.00 0.00 73 1008.2
20260505191800 30 242 4.8 4.8 0.00 0.00 0.00 71 1008.2
20260505191258 30 158 3.2 3.2 0.00 0.00 0.00 73 1008.4
20260505190754 29 233 4.8 8.0 0.00 0.00 0.00 74 1008.4
20260505190250 28 147 3.2 4.8 0.00 0.00 0.00 76 1008.5
20260505185746 28 163 4.8 8.0 0.00 0.00 0.00 74 1008.5
20260505185243 28 162 4.8 4.8 0.00 0.00 0.00 75 1008.4
20260505184739 28 135 8.0 14.5 0.00 0.00 0.00 73 1008.5
20260505184236 28 222 4.8 4.8 0.00 0.00 0.00 74 1008.7
20260505183733 28 147 6.4 8.0 0.00 0.00 0.00 75 1008.6
20260505183230 27 151 1.6 3.2 0.00 0.00 0.00 79 1008.9
20260505182726 26 181 0.0 3.2 0.00 0.00 0.00 80 1008.9
20260505182224 26 179 1.6 3.2 0.00 0.00 0.00 81 1009.1
20260505181720 26 180 1.6 3.2 0.00 0.00 0.00 80 1009.0
20260505181218 26 174 3.2 4.8 0.00 0.00 0.00 81 1009.0
20260505180714 26 167 1.6 3.2 0.00 0.00 0.00 83 1009.1
20260505180211 25 176 1.6 3.2 0.00 0.00 0.00 82 1009.1
20260505175707 25 211 6.4 14.5 0.00 0.00 0.00 83 1009.3
20260505175203 25 192 4.8 8.0 0.00 0.00 0.00 83 1009.4
20260505174700 25 217 8.0 19.3 0.00 0.00 0.00 84 1009.5
20260505174156 25 189 3.2 4.8 0.00 0.00 0.00 84 1009.5
20260505173653 25 162 6.4 8.0 0.00 0.00 0.00 83 1009.5
20260505173150 25 185 4.8 8.0 0.00 0.00 0.00 84 1009.4
20260505172647 25 2 1.6 3.2 0.00 0.00 0.00 84 1009.6
20260505172144 25 206 3.2 4.8 0.00 0.00 0.00 85 1009.5
20260505171643 24 169 0.0 0.0 0.00 0.00 0.00 87 1009.6
20260505171141 24 170 6.4 8.0 0.00 0.00 0.00 86 1009.6
20260505170638 23 199 4.8 4.8 0.00 0.00 0.00 88 1009.7
20260505170135 23 123 9.7 14.5 0.00 0.00 0.00 88 1009.7
20260505165634 23 134 4.8 4.8 0.00 0.00 0.00 88 1009.8
20260505165131 23 179 6.4 8.0 0.00 0.00 0.00 89 1009.7
20260505164626 23 253 6.4 8.0 0.00 0.00 0.00 89 1009.7
20260505164124 23 184 6.4 8.0 0.00 0.00 0.00 89 1009.7
20260505163623 23 158 3.2 4.8 0.00 0.00 0.00 89 1009.7
20260505163120 23 247 1.6 4.8 0.00 0.00 0.00 90 1009.7
20260505162617 23 167 3.2 3.2 0.00 0.00 0.00 90 1009.6
20260505162115 22 141 0.0 0.0 0.00 0.00 0.00 91 1009.5
20260505161612 22 154 0.0 0.0 0.00 0.00 0.00 91 1009.6
20260505161109 22 154 4.8 4.8 0.00 0.00 0.00 91 1009.7
20260505160607 22 150 1.6 3.2 0.00 0.00 0.00 92 1009.7
20260505160104 22 161 0.0 0.0 0.00 0.00 0.00 92 1009.7
20260505153043 22 213 0.0 3.2 0.00 0.00 0.00 94 1009.8
20260505152540 22 148 0.0 0.0 0.00 0.00 0.00 94 1009.7
20260505152036 21 154 0.0 3.2 0.00 0.00 0.00 94 1009.5
20260505151531 21 126 3.2 4.8 0.00 0.00 0.00 94 1009.6
20260505151029 21 127 4.8 8.0 0.00 0.00 0.00 94 1009.8
20260505150525 21 158 1.6 3.2 0.00 0.00 0.00 95 1009.6
20260505140450 21 166 3.2 4.8 0.00 0.00 0.00 94 1009.1